Location: Pl�tzky
(52.0521°N, 11.8020°E)
Time: 05:45:51
(UTC+00:00)

Cosmos 2082 - Pass Details

Date: 22 November 2019
Orbit: 835 x 854 km, 71.0° (Epoch: 05 December)

Event Time Altitude Azimuth Distance (km) Brightness Sun altitude
Rises 15:41:44 0° 328° (NNW) 3,398 6.9 -4.6°
Reaches altitude 10° 15:44:11 10° 328° (NNW) 2,459 6.2 -5.0°
Maximum altitude 15:49:49 82° 243° (WSW) 850 3.9 -5.8°
Drops below altitude 10° 15:55:26 10° 155° (SSE) 2,446 6.1 -6.5°
Sets 15:57:52 0° 155° (SSE) 3,378 6.8 -6.9°
